EW8841 Weather Reports


time (UTC)temp
C
wind
direction
speed
KPH
gust
KPH
rain 1hr
cm
rain 24hr
cm
rain mn
cm
humidity
%
barometer
mb
20260503211518 22 0.0 0.0 0.00 0.00 0.00 48 1010.8
20260503210517 21 0.0 0.0 0.00 0.00 0.00 50 1010.8
20260503205517 20 0.0 0.0 0.00 0.00 0.00 49 1010.8
20260503204559 21 0.0 0.0 0.00 0.00 0.00 49 1010.8
20260503203517 22 0.0 0.0 0.00 0.00 0.00 47 1010.9
20260503202516 21 0.0 0.0 0.00 0.00 0.00 49 1011.0
20260503201517 21 0.0 0.0 0.00 0.00 0.00 50 1011.0
20260503200518 21 0.0 0.0 0.00 0.00 0.00 52 1010.9
20260503195537 21 0.0 0.0 0.00 0.00 0.00 50 1011.3
20260503194517 21 0.0 0.0 0.00 0.00 0.00 50 1011.3
20260503193518 21 0.0 0.0 0.00 0.00 0.00 51 1011.3
20260503192517 20 0.0 0.0 0.00 0.00 0.00 54 1011.4
20260503191517 20 0.0 0.0 0.00 0.00 0.00 50 1011.4
20260503190518 20 0.0 0.0 0.00 0.00 0.00 52 1011.5
20260503185517 20 0.0 0.0 0.00 0.00 0.00 53 1011.7
20260503184518 20 0.0 0.0 0.00 0.00 0.00 55 1011.7
20260503183517 19 0.0 0.0 0.00 0.00 0.00 58 1011.8
20260503182517 18 0.0 0.0 0.00 0.00 0.00 59 1011.9
20260503181538 18 0.0 0.0 0.00 0.00 0.00 61 1011.9
20260503180517 18 0.0 0.0 0.00 0.00 0.00 63 1011.9
20260503175517 17 0.0 0.0 0.00 0.00 0.00 63 1012.0
20260503174516 17 0.0 0.0 0.00 0.00 0.00 67 1012.0
20260503173517 17 0.0 0.0 0.00 0.00 0.00 66 1012.0
20260503172538 17 0.0 0.0 0.00 0.00 0.00 68 1012.0
20260503171518 16 0.0 0.0 0.00 0.00 0.00 70 1012.0
20260503170517 16 0.0 0.0 0.00 0.00 0.00 71 1011.9
20260503150516 14 0.0 0.0 0.00 0.00 0.00 78 1011.2
20260503130517 13 0.0 0.0 0.00 0.00 0.00 78 1010.2
20260503110522 13 0.0 0.0 0.00 0.00 0.00 78 1009.9
20260503081534 14 0.0 0.0 0.00 0.00 0.00 80 1010.2
20260503080518 14 0.0 0.0 0.00 0.00 0.00 81 1010.5
20260503072518 14 0.0 0.0 0.00 0.00 0.00 82 1010.2
20260503071518 14 0.0 0.0 0.00 0.00 0.00 82 1010.2
20260503070547 14 0.0 0.0 0.00 0.00 0.00 82 1010.2
20260503054515 14 0.0 0.0 0.00 0.00 0.00 80 1009.7
20260503053515 14 0.0 0.0 0.00 0.00 0.00 80 1009.7
20260503052517 14 0.0 0.0 0.00 0.00 0.00 79 1009.6
20260503051516 14 0.0 0.0 0.00 0.00 0.00 79 1009.6
20260503050537 14 0.0 0.0 0.00 0.00 0.00 79 1009.6
20260503045536 14 0.0 0.0 0.00 0.00 0.00 79 1009.6
20260503044515 14 0.0 0.0 0.00 0.00 0.00 79 1009.6
20260503043518 14 0.0 0.0 0.00 0.00 0.00 78 1009.4
20260503042518 14 0.0 0.0 0.00 0.00 0.00 78 1009.6
20260503041538 14 0.0 0.0 0.00 0.00 0.00 79 1009.6
20260503040518 14 0.0 0.0 0.00 0.00 0.00 79 1009.2
20260503035537 14 0.0 0.0 0.00 0.00 0.00 79 1009.2
20260503034517 14 0.0 0.0 0.00 0.00 0.00 79 1009.2
20260503033516 14 0.0 0.0 0.00 0.00 0.00 79 1009.2
20260503032517 15 0.0 0.0 0.00 0.00 0.00 78 1009.2
20260503031518 15 0.0 0.0 0.00 0.00 0.00 77 1009.2
20260503030518 15 0.0 0.0 0.00 0.00 0.00 77 1008.8
20260503025518 15 0.0 0.0 0.00 0.00 0.00 77 1008.7
20260503024517 15 0.0 0.0 0.00 0.00 0.00 76 1008.7
20260503023517 15 0.0 0.0 0.00 0.00 0.00 75 1008.6
20260503022517 15 0.0 0.0 0.00 0.00 0.00 74 1008.6
20260503021517 16 0.0 0.0 0.00 0.00 0.00 73 1008.6
20260503020518 16 0.0 0.0 0.00 0.00 0.00 72 1008.6
20260503015517 17 0.0 0.0 0.00 0.00 0.00 70 1008.6
20260503014517 17 0.0 0.0 0.00 0.00 0.00 69 1008.7
20260503013518 18 0.0 0.0 0.00 0.00 0.00 67 1008.6
20260503012537 18 0.0 0.0 0.00 0.00 0.00 65 1008.7
20260503011518 19 0.0 0.0 0.00 0.00 0.00 64 1008.7
20260503010518 20 0.0 0.0 0.00 0.00 0.00 62 1008.7
20260503005517 20 0.0 0.0 0.00 0.00 0.00 60 1008.7
20260503004537 21 0.0 0.0 0.00 0.00 0.00 59 1008.7
20260503003538 21 0.0 0.0 0.00 0.00 0.00 58 1008.7
20260503002517 21 0.0 0.0 0.00 0.00 0.00 59 1008.7
20260503001518 21 0.0 0.0 0.00 0.00 0.00 58 1008.7
20260503000517 22 0.0 0.0 0.00 0.00 0.00 58 1008.7
20260502235517 22 0.0 0.0 0.00 0.00 0.00 58 1008.7
20260502234517 22 0.0 0.0 0.00 0.00 0.00 58 1008.6
20260502233517 22 0.0 0.0 0.00 0.00 0.00 58 1008.8
20260502232517 22 0.0 0.0 0.00 0.00 0.00 57 1009.1
20260502231518 22 0.0 0.0 0.00 0.00 0.00 57 1009.2
20260502230517 22 0.0 0.0 0.00 0.00 0.00 58 1009.2
20260502225517 22 0.0 0.0 0.00 0.00 0.00 58 1009.3
20260502224517 21 0.0 0.0 0.00 0.00 0.00 59 1009.2
20260502223517 22 0.0 0.0 0.00 0.00 0.00 58 1009.7
20260502222537 22 0.0 0.0 0.00 0.00 0.00 58 1010.1
20260502221518 21 0.0 0.0 0.00 0.00 0.00 61 1010.1
20260502220517 21 0.0 0.0 0.00 0.00 0.00 62 1010.2
20260502215516 20 0.0 0.0 0.00 0.00 0.00 64 1010.6
20260502214538 21 0.0 0.0 0.00 0.00 0.00 64 1010.6
20260502213517 20 0.0 0.0 0.00 0.00 0.00 67 1010.9
20260502212537 20 0.0 0.0 0.00 0.00 0.00 67 1011.1